When you browse on this site, cookies collect data to enhance your experience and personalize the content and advertising you see.
Visit our Privacy Policy to learn more. By continuing to use the site, you agree to this use of cookies and data.
  • In Lithuania
  • List of Countries
  • For 7 days
  • Water Temperature
  • Satellite Maps
  • Weather Map
  • Weather Widgets
  • user-avatar
    Login

    Hourly Weather Kojecin

    Today, 21 March, Thursday

    Time Temperature Precipitation Wind Pressure Humidity
    00:00 +4°C° 0 mm 2 mps 762 mmHg 64%
    01:00 +3°C° 0 mm 3 mps 762 mmHg 65%
    02:00 +3°C° 0 mm 3 mps 761 mmHg 65%
    03:00 +3°C° 0 mm 3 mps 761 mmHg 66%
    04:00 +3°C° 0 mm 3 mps 761 mmHg 66%
    05:00 +3°C° 0 mm 3 mps 761 mmHg 67%
    06:00 +3°C° 0 mm 3 mps 762 mmHg 68%
    07:00 +4°C° 0 mm 3 mps 762 mmHg 69%
    08:00 +7°C° 0 mm 3 mps 762 mmHg 66%
    09:00 +8°C° 0 mm 3 mps 762 mmHg 64%
    10:00 +10°C° 0 mm 3 mps 762 mmHg 61%
    11:00 +11°C° 0 mm 3 mps 762 mmHg 61%
    12:00 +12°C° 0 mm 3 mps 761 mmHg 61%
    13:00 +13°C° 0 mm 3 mps 761 mmHg 60%
    14:00 +13°C° 0 mm 3 mps 761 mmHg 62%
    15:00 +14°C° 0 mm 2 mps 761 mmHg 64%
    16:00 +14°C° 0 mm 2 mps 760 mmHg 65%
    17:00 +13°C° 0 mm 2 mps 760 mmHg 70%
    18:00 +12°C° 0 mm 1 mps 760 mmHg 75%
    19:00 +11°C° 0 mm 1 mps 761 mmHg 79%
    20:00 +10°C° 0 mm 1 mps 761 mmHg 82%
    21:00 +10°C° 0 mm 1 mps 761 mmHg 85%
    22:00 +9°C° 0 mm 1 mps 761 mmHg 87%
    23:00 +9°C° 0 mm 1 mps 761 mmHg 88%

    Tomorrow, 22 March, Friday

    Time Temperature Precipitation Wind Pressure Humidity
    00:00 +8°C° 0 mm 2 mps 761 mmHg 89%
    01:00 +7°C° 0 mm 2 mps 761 mmHg 89%
    02:00 +7°C° 0 mm 2 mps 761 mmHg 89%
    03:00 +8°C° 0 mm 2 mps 761 mmHg 88%
    04:00 +8°C° 0 mm 2 mps 761 mmHg 88%
    05:00 +8°C° 0 mm 2 mps 761 mmHg 88%
    06:00 +9°C° 0 mm 1 mps 761 mmHg 89%
    07:00 +9°C° 0 mm 1 mps 761 mmHg 89%
    08:00 +10°C° 0 mm 1 mps 761 mmHg 85%
    09:00 +12°C° 0 mm 2 mps 761 mmHg 80%
    10:00 +14°C° 0 mm 2 mps 761 mmHg 76%
    11:00 +14°C° 0 mm 2 mps 761 mmHg 73%
    12:00 +15°C° 0 mm 2 mps 761 mmHg 70%
    13:00 +16°C° 0 mm 2 mps 761 mmHg 68%
    14:00 +16°C° 0 mm 2 mps 760 mmHg 69%
    15:00 +15°C° 0 mm 2 mps 760 mmHg 70%
    16:00 +15°C° 0 mm 2 mps 760 mmHg 71%
    17:00 +14°C° 0 mm 2 mps 759 mmHg 77%
    18:00 +12°C° 0 mm 2 mps 759 mmHg 83%
    19:00 +10°C° 0 mm 2 mps 759 mmHg 88%
    20:00 +10°C° 0 mm 2 mps 759 mmHg 90%
    21:00 +9°C° 0 mm 2 mps 759 mmHg 91%
    22:00 +9°C° 0 mm 2 mps 759 mmHg 92%
    23:00 +8°C° 0 mm 2 mps 759 mmHg 93%

    Day after tomorrow, 23 March, Saturday

    Time Temperature Precipitation Wind Pressure Humidity
    00:00 +8°C° 0 mm 2 mps 759 mmHg 93%
    01:00 +8°C° 0 mm 2 mps 758 mmHg 93%
    02:00 +8°C° 0 mm 2 mps 758 mmHg 93%
    03:00 +7°C° 0 mm 2 mps 758 mmHg 92%
    04:00 +7°C° 0 mm 2 mps 757 mmHg 91%
    05:00 +9°C° 0 mm 1 mps 757 mmHg 90%
    06:00 +9°C° 0 mm 1 mps 757 mmHg 89%
    07:00 +9°C° 0 mm 1 mps 757 mmHg 88%
    08:00 +12°C° 0 mm 1 mps 757 mmHg 79%
    09:00 +14°C° 0 mm 1 mps 757 mmHg 71%
    10:00 +16°C° 0 mm 1 mps 756 mmHg 62%
    11:00 +18°C° 0 mm 1 mps 756 mmHg 58%
    12:00 +19°C° 0 mm 1 mps 756 mmHg 54%
    13:00 +20°C° 0 mm 1 mps 755 mmHg 49%
    14:00 +20°C° 0 mm 1 mps 755 mmHg 48%
    15:00 +20°C° 0 mm 1 mps 755 mmHg 47%
    16:00 +21°C° 0 mm 1 mps 754 mmHg 47%
    17:00 +19°C° 0 mm 1 mps 754 mmHg 51%
    18:00 +16°C° 0 mm 0 mps 755 mmHg 56%
    19:00 +14°C° 0 mm 0 mps 755 mmHg 61%
    20:00 +15°C° 0 mm 1 mps 755 mmHg 63%
    21:00 +15°C° 0 mm 1 mps 755 mmHg 64%
    22:00 +15°C° 0 mm 2 mps 755 mmHg 65%
    23:00 +13°C° 0 mm 3 mps 756 mmHg 72%

    24 March, Sunday

    Time Temperature Precipitation Wind Pressure Humidity
    00:00 +11°C° 0 mm 3 mps 756 mmHg 80%
    01:00 +10°C° 0 mm 4 mps 756 mmHg 87%
    02:00 +10°C° 0.1 mm 4 mps 756 mmHg 86%
    03:00 +8°C° 0.1 mm 4 mps 756 mmHg 86%
    04:00 +8°C° 0.1 mm 4 mps 756 mmHg 86%
    05:00 +7°C° 0.1 mm 4 mps 756 mmHg 82%
    06:00 +8°C° 0.1 mm 3 mps 756 mmHg 79%
    07:00 +7°C° 0.1 mm 3 mps 757 mmHg 76%
    08:00 +7°C° 0 mm 2 mps 756 mmHg 71%
    09:00 +8°C° 0 mm 2 mps 756 mmHg 66%
    10:00 +9°C° 0 mm 1 mps 756 mmHg 62%
    11:00 +10°C° 0 mm 1 mps 756 mmHg 61%
    12:00 +10°C° 0 mm 1 mps 756 mmHg 60%
    13:00 +9°C° 0 mm 0 mps 755 mmHg 60%
    14:00 +10°C° 0.1 mm 1 mps 754 mmHg 62%
    15:00 +10°C° 0.1 mm 1 mps 754 mmHg 65%
    16:00 +10°C° 0.1 mm 1 mps 753 mmHg 68%
    17:00 +10°C° 0 mm 1 mps 753 mmHg 71%
    18:00 +9°C° 0 mm 1 mps 753 mmHg 75%
    19:00 +9°C° 0 mm 1 mps 753 mmHg 79%
    20:00 +9°C° 0.5 mm 1 mps 752 mmHg 82%
    21:00 +8°C° 0.5 mm 1 mps 752 mmHg 85%
    22:00 +8°C° 0.5 mm 1 mps 752 mmHg 88%
    23:00 +7°C° 0.1 mm 2 mps 752 mmHg 88%

    25 March, Monday

    Time Temperature Precipitation Wind Pressure Humidity
    00:00 +6°C° 0.1 mm 2 mps 752 mmHg 87%
    01:00 +6°C° 0.1 mm 2 mps 751 mmHg 86%
    02:00 +5°C° 0 mm 2 mps 751 mmHg 83%
    03:00 +4°C° 0 mm 3 mps 751 mmHg 79%
    04:00 +4°C° 0 mm 3 mps 751 mmHg 76%
    05:00 +4°C° 0 mm 3 mps 751 mmHg 75%
    06:00 +3°C° 0 mm 4 mps 751 mmHg 75%
    07:00 +3°C° 0 mm 4 mps 751 mmHg 74%
    08:00 +3°C° 0 mm 5 mps 751 mmHg 68%
    09:00 +6°C° 0 mm 5 mps 751 mmHg 62%
    10:00 +7°C° 0 mm 6 mps 751 mmHg 55%
    11:00 +8°C° 0 mm 7 mps 750 mmHg 52%
    12:00 +8°C° 0 mm 7 mps 750 mmHg 49%
    13:00 +9°C° 0 mm 8 mps 749 mmHg 46%
    14:00 +7°C° 0.1 mm 9 mps 749 mmHg 50%
    15:00 +7°C° 0.1 mm 9 mps 748 mmHg 54%
    16:00 +6°C° 0.1 mm 10 mps 748 mmHg 58%
    17:00 +5°C° 0.3 mm 9 mps 748 mmHg 62%
    18:00 +4°C° 0.3 mm 7 mps 748 mmHg 66%
    19:00 +3°C° 0.3 mm 6 mps 748 mmHg 70%
    20:00 +2°C° 0.1 mm 6 mps 748 mmHg 70%
    21:00 +2°C° 0.1 mm 7 mps 748 mmHg 70%
    22:00 0°C° 0.1 mm 7 mps 749 mmHg 70%
    23:00 0°C° 0.1 mm 8 mps 748 mmHg 70%

    26 March, Tuesday

    Time Temperature Precipitation Wind Pressure Humidity
    00:00 -1°C° 0.1 mm 8 mps 748 mmHg 71%
    01:00 -1°C° 0.1 mm 8 mps 748 mmHg 72%
    02:00 -1°C° 0.1 mm 9 mps 747 mmHg 71%
    03:00 -3°C° 0.1 mm 9 mps 747 mmHg 71%
    04:00 -3°C° 0.1 mm 9 mps 747 mmHg 70%
    05:00 -3°C° 0.1 mm 9 mps 747 mmHg 70%
    06:00 -3°C° 0.1 mm 10 mps 748 mmHg 69%
    07:00 -3°C° 0.1 mm 11 mps 748 mmHg 68%
    08:00 -2°C° 0 mm 11 mps 748 mmHg 66%
    09:00 -2°C° 0 mm 11 mps 748 mmHg 64%
    10:00 -1°C° 0 mm 11 mps 749 mmHg 62%
    11:00 -1°C° 0.1 mm 11 mps 749 mmHg 62%
    12:00 +1°C° 0.1 mm 11 mps 749 mmHg 62%
    13:00 +1°C° 0.1 mm 11 mps 749 mmHg 62%
    14:00 +1°C° 0.4 mm 11 mps 750 mmHg 65%
    15:00 +1°C° 0.4 mm 10 mps 750 mmHg 67%
    16:00 +1°C° 0.4 mm 10 mps 751 mmHg 70%
    17:00 +1°C° 0.2 mm 9 mps 751 mmHg 73%
    18:00 0°C° 0.2 mm 8 mps 752 mmHg 75%
    19:00 0°C° 0.2 mm 7 mps 753 mmHg 78%
    20:00 +1°C° 0 mm 6 mps 754 mmHg 79%
    21:00 -1°C° 0 mm 6 mps 754 mmHg 81%
    22:00 0°C° 0 mm 5 mps 755 mmHg 82%
    23:00 0°C° 0 mm 5 mps 755 mmHg 83%
    Show more